Stigler, OK

9:59 PM CDT on August 22, 2017 (GMT -0500)
Stigler

Weather History for KGZL - March, 2013

Change the Weather History Date:

Monday, March 4, 2013

  Actual Average (KJSV) Record (KJSV)
Temperature  
Mean Temperature 62 °F -  
Max Temperature 75 °F 61 °F 81 °F (1967)
Min Temperature 48 °F 36 °F 8 °F (2002)
Degree Days  
Heating Degree Days 4    
Growing Degree Days 12 (Base 50)    
Moisture  
Dew Point 37 °F    
Average Humidity 45    
Maximum Humidity 72    
Minimum Humidity 22    
Precipitation  
Precipitation 0.00 in - - ()
Sea Level Pressure  
Sea Level Pressure 29.67 in    
Wind  
Wind Speed 11 mph (South)    
Max Wind Speed 22 mph    
Max Gust Speed 28 mph    
Visibility 10 miles    
Events      
Averages and records for this station are not official NWS values.
T = Trace of Precipitation, MM = Missing Value Source: NWS Daily Summary

Daily Weather History Graph

Daily Weather History Graph

Search for Another Location

Airport or City:

Trip Planner

Search our weather history database for the weather conditions in past years. The results will help you decide how hot, cold, wet, or windy it might be!

Date:

Astronomy

Mar. 04, 2013 Rise Set
Actual Time 6:45 AM CST 6:18 PM CST
Civil Twilight 6:20 AM CST 6:44 PM CST
Nautical Twilight 5:50 AM CST 7:13 PM CST
Astronomical Twilight 5:21 AM CST 7:43 PM CST
Moon 12:47 AM CST (3/4) 11:10 AM CST (3/4)
Length of Visible Light 12h 23m
Length of Day
11h 33m
Waning Gibbous, 52% of the Moon is Illuminated
Mar 4
Waning Gibbous
Mar 4
Last Quarter
Mar 11
New
Mar 19
First Quarter
Mar 27
Full

Hourly Weather History & Observations

Time (CST) Temp. Dew Point Humidity Pressure Visibility Wind Dir Wind Speed Gust Speed Precip Events Conditions
12:15 AM 48.2 °F 30.2 °F 50% 29.77 in 10.0 mi ESE 11.5 mph - N/A   Clear
12:55 AM 50.0 °F 30.2 °F 47% 29.75 in 10.0 mi SSE 13.8 mph 20.7 mph N/A   Clear
1:15 AM 50.0 °F 32.0 °F 50% 29.74 in 10.0 mi SE 10.4 mph 18.4 mph N/A   Clear
1:35 AM 55.4 °F 32.0 °F 41% 29.73 in 10.0 mi SSE 13.8 mph 19.6 mph N/A   Clear
1:55 AM 55.4 °F 32.0 °F 41% 29.72 in 10.0 mi SE 12.7 mph 19.6 mph N/A   Clear
2:15 AM 55.4 °F 32.0 °F 41% 29.71 in 10.0 mi SE 11.5 mph 17.3 mph N/A   Clear
2:35 AM 53.6 °F 32.0 °F 44% 29.70 in 10.0 mi SE 10.4 mph - N/A   Clear
3:15 AM 53.6 °F 32.0 °F 44% 29.68 in 10.0 mi SSE 9.2 mph - N/A   Clear
3:35 AM 53.6 °F 32.0 °F 44% 29.67 in 10.0 mi SSE 8.1 mph - N/A   Clear
3:55 AM 53.6 °F 33.8 °F 47% 29.67 in 10.0 mi SE 6.9 mph - N/A   Clear
4:15 AM 53.6 °F 33.8 °F 47% 29.67 in 10.0 mi South 9.2 mph - N/A   Clear
4:35 AM 53.6 °F 33.8 °F 47% 29.67 in 10.0 mi South 6.9 mph - N/A   Clear
4:55 AM 53.6 °F 33.8 °F 47% 29.67 in 10.0 mi South 5.8 mph - N/A   Clear
5:15 AM 53.6 °F 35.6 °F 51% 29.67 in 10.0 mi South 9.2 mph 16.1 mph N/A   Clear
5:35 AM 55.4 °F 35.6 °F 47% 29.67 in 10.0 mi South 11.5 mph 26.5 mph N/A   Clear
5:55 AM 55.4 °F 35.6 °F 47% 29.66 in 10.0 mi South 12.7 mph - N/A   Clear
6:15 AM 53.6 °F 35.6 °F 51% 29.66 in 10.0 mi South 12.7 mph 18.4 mph N/A   Clear
6:35 AM 53.6 °F 37.4 °F 54% 29.66 in 10.0 mi South 9.2 mph - N/A   Clear
6:55 AM 53.6 °F 37.4 °F 54% 29.66 in 10.0 mi South 10.4 mph - N/A   Clear
7:15 AM 53.6 °F 37.4 °F 54% 29.66 in 10.0 mi SSE 6.9 mph - N/A   Clear
7:35 AM 51.8 °F 37.4 °F 58% 29.66 in 6.0 mi SE 6.9 mph - N/A   Haze
7:55 AM 53.6 °F 37.4 °F 54% 29.66 in 10.0 mi SSE 8.1 mph - N/A   Clear
8:15 AM 55.4 °F 39.2 °F 54% 29.65 in 9.0 mi South 9.2 mph - N/A   Clear
8:35 AM 55.4 °F 39.2 °F 54% 29.65 in 8.0 mi SSE 8.1 mph - N/A   Clear
8:55 AM 57.2 °F 39.2 °F 51% 29.66 in 10.0 mi South 6.9 mph - N/A   Clear
9:15 AM 59.0 °F 39.2 °F 48% 29.66 in 10.0 mi SSW 11.5 mph - N/A   Clear
9:35 AM 59.0 °F 39.2 °F 48% 29.66 in 10.0 mi South 11.5 mph - N/A   Clear
9:55 AM 60.8 °F 39.2 °F 45% 29.66 in 10.0 mi SSW 11.5 mph 23.0 mph N/A   Clear
10:15 AM 62.6 °F 39.2 °F 42% 29.65 in 10.0 mi SSW 12.7 mph 23.0 mph N/A   Clear
10:35 AM 62.6 °F 41.0 °F 45% 29.64 in 10.0 mi SSW 16.1 mph 21.9 mph N/A   Clear
10:55 AM 62.6 °F 41.0 °F 45% 29.64 in 10.0 mi SSW 16.1 mph 23.0 mph N/A   Clear
11:15 AM 64.4 °F 41.0 °F 42% 29.64 in 10.0 mi SSW 15.0 mph 23.0 mph N/A   Clear
11:35 AM 64.4 °F 41.0 °F 42% 29.63 in 10.0 mi South 12.7 mph 21.9 mph N/A   Clear
11:55 AM 66.2 °F 41.0 °F 40% 29.63 in 10.0 mi South 11.5 mph 21.9 mph N/A   Clear
12:15 PM 66.2 °F 39.2 °F 37% 29.62 in 10.0 mi SW 13.8 mph 23.0 mph N/A   Clear
12:55 PM 68.0 °F 39.2 °F 35% 29.61 in 9.0 mi SSW 9.2 mph 19.6 mph N/A   Clear
1:15 PM 66.2 °F 39.2 °F 37% 29.61 in 9.0 mi SSW 11.5 mph - N/A   Clear
1:35 PM 68.0 °F 39.2 °F 35% 29.60 in 10.0 mi SSW 10.4 mph - N/A   Clear
1:55 PM 69.8 °F 39.2 °F 33% 29.60 in 9.0 mi SSW 11.5 mph 16.1 mph N/A   Clear
2:15 PM 71.6 °F 39.2 °F 31% 29.59 in 10.0 mi South 11.5 mph 17.3 mph N/A   Clear
2:35 PM 71.6 °F 37.4 °F 29% 29.59 in 9.0 mi SW 16.1 mph - N/A   Clear
2:55 PM 73.4 °F 37.4 °F 27% 29.59 in 10.0 mi SSW 15.0 mph 20.7 mph N/A   Clear
3:35 PM 73.4 °F 35.6 °F 25% 29.59 in 10.0 mi SSW 8.1 mph - N/A   Clear
3:55 PM 75.2 °F 35.6 °F 24% 29.59 in 10.0 mi WSW 11.5 mph - N/A   Clear
4:15 PM 75.2 °F 33.8 °F 22% 29.59 in 10.0 mi SW 10.4 mph - N/A   Clear
4:35 PM 75.2 °F 33.8 °F 22% 29.59 in 10.0 mi SSW 6.9 mph - N/A   Clear
4:55 PM 75.2 °F 35.6 °F 24% 29.59 in 9.0 mi SSW 3.5 mph - N/A   Clear
5:15 PM 73.4 °F 35.6 °F 25% 29.59 in 10.0 mi Calm Calm - N/A   Clear
5:35 PM 73.4 °F 35.6 °F 25% 29.60 in 10.0 mi South 3.5 mph - N/A   Clear
5:55 PM 71.6 °F 39.2 °F 31% 29.61 in 10.0 mi Calm Calm - N/A   Clear
6:15 PM 68.0 °F 37.4 °F 33% 29.63 in 10.0 mi WSW 6.9 mph - N/A   Clear
6:35 PM 64.4 °F 37.4 °F 37% 29.64 in 10.0 mi West 5.8 mph - N/A   Clear
6:55 PM 64.4 °F 33.8 °F 32% 29.65 in 10.0 mi West 4.6 mph - N/A   Partly Cloudy
7:15 PM 62.6 °F 35.6 °F 37% 29.66 in 10.0 mi NW 4.6 mph - N/A   Clear
7:35 PM 59.0 °F 41.0 °F 51% 29.68 in 10.0 mi NE 6.9 mph - N/A   Clear
7:55 PM 59.0 °F 46.4 °F 63% 29.69 in 10.0 mi East 8.1 mph - N/A   Clear
8:35 PM 57.2 °F 46.4 °F 67% 29.70 in 10.0 mi East 9.2 mph - N/A   Partly Cloudy
8:55 PM 57.2 °F 46.4 °F 67% 29.71 in 9.0 mi East 10.4 mph - N/A   Mostly Cloudy
9:15 PM 57.2 °F 46.4 °F 67% 29.71 in 10.0 mi NE 3.5 mph - N/A   Partly Cloudy
9:35 PM 55.4 °F 46.4 °F 72% 29.73 in 10.0 mi NNE 4.6 mph - N/A   Clear
9:55 PM 53.6 °F 44.6 °F 72% 29.76 in 10.0 mi NNW 21.9 mph 26.5 mph N/A   Partly Cloudy
10:15 PM 51.8 °F 39.2 °F 62% 29.78 in 10.0 mi NNW 17.3 mph 21.9 mph N/A   Clear
10:35 PM 51.8 °F 39.2 °F 62% 29.79 in 10.0 mi NNW 18.4 mph 24.2 mph N/A   Clear
10:55 PM 50.0 °F 37.4 °F 62% 29.84 in 10.0 mi NNW 17.3 mph 26.5 mph N/A   Mostly Cloudy
11:15 PM 48.2 °F 35.6 °F 62% 29.85 in 10.0 mi NNW 16.1 mph 23.0 mph N/A   Overcast
11:35 PM 48.2 °F 33.8 °F 58% 29.91 in 10.0 mi NW 20.7 mph 27.6 mph N/A   Overcast
11:55 PM 48.2 °F 32.0 °F 54% 29.94 in 10.0 mi NW 15.0 mph 24.2 mph N/A   Overcast